TIANTONG-1 1 (41725 NORAD) Tracking and Keplerian Element Data

This shows tracking and keplerian element data for the satellite.

Feedback or suggestion? Click here.




ElementValue
Catalog41725
NameTIANTONG-1 1
Epoch Orbit2263
Epoch Day270.12688163
Epoch Year2022
RAAN2.716
Inclination2.2561
Eccentricity0.0003343
Argument of Perigee296.5814
Mean Anonmoly213.6664
Mean Motion1.00270271
Decay Rate-3.13E-06
L11 41725U 16048A 22270.12688163 -.00000313 00000+0 00000+0 0 9992
L22 41725 2.2561 2.7160 0003343 296.5814 213.6664 1.00270271 22632

Live tracking and technical data element details for TIANTONG-1 1 (NORAD 41725). TIANTONG-1 1 can be tracked NOW for your location showing map with azimuth and elevation plus other details from your city location.

Track the satellite on the map from your city or location and see movement details for azimuth, elevation, latitude, longitude, range, height, and movement on the map or in text.







IsCatalogInMostPopularTable: catalog: 41725, numindb: 982
Update: records affected: 1



GetName: 41725 TIANTONG-1 1

Hit Count: updated at: Wed, 28 Sep 2022 22:05:25 GMT